status,avgMeasuredTime,avgSpeed,extID,medianMeasuredTime,TIMESTAMP,vehicleCount,_id,REPORT_ID
OK,52,58,659,52,2014-08-01T07:50:00,0,20746211,186979
OK,55,55,659,55,2014-08-01T07:55:00,1,20746383,186979
OK,55,55,659,55,2014-08-01T08:00:00,1,20746714,186979
OK,55,55,659,55,2014-08-01T08:05:00,0,20747163,186979
OK,147,20,659,147,2014-08-01T08:10:00,1,20747536,186979
OK,147,20,659,147,2014-08-01T08:15:00,1,20747985,186979
OK,147,20,659,147,2014-08-01T08:20:00,0,20748434,186979
OK,123,24,659,123,2014-08-01T08:25:00,1,20748883,186979
OK,96,31,659,96,2014-08-01T08:30:00,1,20749332,186979
OK,95,31,659,95,2014-08-01T08:35:00,2,20749781,186979
OK,95,31,659,95,2014-08-01T08:40:00,1,20750230,186979
OK,95,31,659,95,2014-08-01T08:45:00,0,20750679,186979
OK,95,31,659,95,2014-08-01T08:50:00,0,20751128,186979
OK,95,31,659,95,2014-08-01T08:55:00,0,20751577,186979
OK,95,31,659,95,2014-08-01T09:00:00,0,20752026,186979
OK,95,31,659,95,2014-08-01T09:05:00,0,20752475,186979
OK,95,31,659,95,2014-08-01T09:10:00,0,20752924,186979
OK,95,31,659,95,2014-08-01T09:15:00,0,20753373,186979
OK,95,31,659,95,2014-08-01T09:20:00,0,20753822,186979
OK,95,31,659,95,2014-08-01T09:25:00,0,20754271,186979
OK,95,31,659,95,2014-08-01T09:30:00,0,20754720,186979
OK,95,31,659,95,2014-08-01T09:35:00,0,20755169,186979
OK,126,24,659,126,2014-08-01T09:40:00,1,20755618,186979
OK,113,26,659,113,2014-08-01T09:45:00,2,20756067,186979
OK,97,31,659,97,2014-08-01T09:50:00,2,20756516,186979
OK,94,32,659,94,2014-08-01T09:55:00,1,20756965,186979
OK,94,32,659,94,2014-08-01T10:00:00,0,20757414,186979
OK,85,35,659,85,2014-08-01T10:05:00,2,20757863,186979
OK,110,27,659,110,2014-08-01T10:10:00,3,20758312,186979
OK,141,21,659,141,2014-08-01T10:15:00,1,20758761,186979
OK,141,21,659,141,2014-08-01T10:20:00,0,20759210,186979
OK,141,21,659,141,2014-08-01T10:25:00,0,20759659,186979
OK,130,23,659,130,2014-08-01T10:30:00,1,20760108,186979
OK,176,17,659,176,2014-08-01T10:35:00,2,20760557,186979
OK,223,13,659,223,2014-08-01T10:40:00,1,20761006,186979
OK,223,13,659,223,2014-08-01T10:45:00,0,20761455,186979
OK,223,13,659,223,2014-08-01T10:50:00,0,20761904,186979
OK,223,13,659,223,2014-08-01T10:55:00,0,20762353,186979
OK,223,13,659,223,2014-08-01T11:00:00,0,20762802,186979
OK,223,13,659,223,2014-08-01T11:05:00,0,20763251,186979
OK,223,13,659,223,2014-08-01T11:10:00,0,20763700,186979
OK,223,13,659,223,2014-08-01T11:15:00,0,20764149,186979
OK,92,33,659,92,2014-08-01T11:20:00,1,20764597,186979
OK,92,33,659,92,2014-08-01T11:25:00,1,20765046,186979
OK,92,33,659,92,2014-08-01T11:30:00,0,20765495,186979
OK,92,33,659,92,2014-08-01T11:35:00,0,20765944,186979
OK,92,33,659,92,2014-08-01T11:40:00,0,20766393,186979
OK,136,22,659,136,2014-08-01T11:45:00,1,20766842,186979
OK,136,22,659,136,2014-08-01T11:50:00,1,20767291,186979
OK,136,22,659,136,2014-08-01T11:55:00,0,20767740,186979
OK,136,22,659,136,2014-08-01T12:00:00,0,20768189,186979
OK,136,22,659,136,2014-08-01T12:05:00,0,20768638,186979
OK,136,22,659,136,2014-08-01T12:10:00,0,20769087,186979
OK,102,29,659,102,2014-08-01T12:15:00,1,20769536,186979
OK,102,29,659,102,2014-08-01T12:20:00,2,20769985,186979
OK,130,23,659,130,2014-08-01T12:25:00,2,20770434,186979
OK,120,25,659,120,2014-08-01T12:30:00,2,20770883,186979
OK,83,36,659,83,2014-08-01T12:35:00,2,20771332,186979
OK,83,36,659,83,2014-08-01T12:40:00,1,20771781,186979
OK,83,36,659,83,2014-08-01T12:45:00,0,20772230,186979
OK,83,36,659,83,2014-08-01T12:50:00,0,20772679,186979
OK,83,36,659,83,2014-08-01T12:55:00,0,20773128,186979
OK,83,36,659,83,2014-08-01T13:00:00,0,20773577,186979
OK,83,36,659,83,2014-08-01T13:05:00,0,20774026,186979
OK,66,46,659,66,2014-08-01T13:10:00,3,20774475,186979
OK,66,46,659,66,2014-08-01T13:15:00,3,20774924,186979
OK,124,24,659,124,2014-08-01T13:20:00,1,20775373,186979
OK,124,24,659,124,2014-08-01T13:25:00,1,20775822,186979
OK,114,26,659,114,2014-08-01T13:30:00,2,20776271,186979
OK,114,26,659,114,2014-08-01T13:35:00,2,20776720,186979
OK,84,36,659,84,2014-08-01T13:40:00,0,20777169,186979
OK,138,22,659,138,2014-08-01T13:45:00,1,20777618,186979
OK,102,29,659,102,2014-08-01T13:50:00,2,20778067,186979
OK,73,41,659,73,2014-08-01T13:55:00,2,20778516,186979
OK,80,37,659,80,2014-08-01T14:00:00,1,20778965,186979
OK,63,48,659,63,2014-08-01T14:05:00,1,20779414,186979
OK,63,48,659,63,2014-08-01T14:10:00,0,20779863,186979
OK,63,48,659,63,2014-08-01T14:15:00,0,20780312,186979
OK,94,32,659,94,2014-08-01T14:20:00,2,20780761,186979
OK,77,39,659,77,2014-08-01T14:25:00,2,20781210,186979
OK,92,33,659,92,2014-08-01T14:30:00,1,20781659,186979
OK,92,33,659,92,2014-08-01T14:35:00,0,20782108,186979
OK,142,21,659,142,2014-08-01T14:40:00,2,20782557,186979
OK,147,20,659,147,2014-08-01T14:45:00,1,20783006,186979
OK,147,20,659,147,2014-08-01T14:50:00,0,20783455,186979
OK,65,46,659,65,2014-08-01T14:55:00,1,20783904,186979
OK,65,46,659,65,2014-08-01T15:00:00,1,20784353,186979
OK,65,46,659,65,2014-08-01T15:05:00,0,20784802,186979
OK,125,24,659,125,2014-08-01T15:10:00,1,20785251,186979
OK,125,24,659,125,2014-08-01T15:15:00,0,20785700,186979
OK,67,45,659,67,2014-08-01T15:20:00,1,20786149,186979
OK,67,45,659,67,2014-08-01T15:25:00,1,20786598,186979
OK,67,45,659,67,2014-08-01T15:30:00,0,20787047,186979
OK,111,27,659,111,2014-08-01T15:35:00,1,20787496,186979
OK,111,27,659,111,2014-08-01T15:40:00,1,20787945,186979
OK,111,27,659,111,2014-08-01T15:45:00,0,20788394,186979
OK,111,27,659,111,2014-08-01T15:50:00,0,20788843,186979
OK,111,27,659,111,2014-08-01T15:55:00,0,20789292,186979
OK,111,27,659,111,2014-08-01T16:00:00,0,20789741,186979
OK,111,27,659,111,2014-08-01T16:05:00,0,20790190,186979
OK,111,27,659,111,2014-08-01T16:10:00,0,20790639,186979
OK,111,27,659,111,2014-08-01T16:15:00,0,20791088,186979
OK,111,27,659,111,2014-08-01T16:20:00,0,20791537,186979
OK,56,54,659,56,2014-08-01T16:25:00,1,20791986,186979
OK,56,54,659,56,2014-08-01T16:30:00,1,20792435,186979
OK,56,54,659,56,2014-08-01T16:35:00,0,20792884,186979
OK,56,54,659,56,2014-08-01T16:40:00,0,20793333,186979
OK,56,54,659,56,2014-08-01T16:45:00,0,20793782,186979
OK,56,54,659,56,2014-08-01T16:50:00,0,20794231,186979
OK,56,54,659,56,2014-08-01T16:55:00,0,20794680,186979
OK,56,54,659,56,2014-08-01T17:00:00,0,20795129,186979
OK,136,22,659,136,2014-08-01T17:05:00,2,20795578,186979
OK,136,22,659,136,2014-08-01T17:10:00,2,20796027,186979
OK,139,21,659,139,2014-08-01T17:15:00,0,20796476,186979
OK,127,23,659,127,2014-08-01T17:20:00,1,20796925,186979
OK,127,23,659,127,2014-08-01T17:25:00,0,20797374,186979
OK,127,23,659,127,2014-08-01T17:30:00,0,20797823,186979
OK,127,23,659,127,2014-08-01T17:35:00,0,20798272,186979
OK,127,23,659,127,2014-08-01T17:40:00,0,20798721,186979
OK,127,23,659,127,2014-08-01T17:45:00,0,20799170,186979
OK,127,23,659,127,2014-08-01T17:50:00,0,20799619,186979
OK,127,23,659,127,2014-08-01T17:55:00,0,20800068,186979
OK,127,23,659,127,2014-08-01T18:00:00,0,20800517,186979
OK,127,23,659,127,2014-08-01T18:05:00,0,20800966,186979
OK,127,23,659,127,2014-08-01T18:10:00,0,20801415,186979
OK,127,23,659,127,2014-08-01T18:15:00,0,20801864,186979
OK,127,23,659,127,2014-08-01T18:20:00,0,20802313,186979
OK,127,23,659,127,2014-08-01T18:25:00,0,20802762,186979
OK,127,23,659,127,2014-08-01T18:30:00,0,20803211,186979
OK,56,54,659,56,2014-08-01T18:35:00,1,20803660,186979
OK,56,54,659,56,2014-08-01T18:40:00,1,20804109,186979
OK,56,54,659,56,2014-08-01T18:45:00,0,20804558,186979
OK,56,54,659,56,2014-08-01T18:50:00,0,20805007,186979
OK,56,54,659,56,2014-08-01T18:55:00,0,20805456,186979
OK,56,54,659,56,2014-08-01T19:00:00,0,20805905,186979
OK,56,54,659,56,2014-08-01T19:05:00,0,20806354,186979
OK,56,54,659,56,2014-08-01T19:10:00,0,20806803,186979
OK,56,54,659,56,2014-08-01T19:15:00,0,20807252,186979
OK,56,54,659,56,2014-08-01T19:20:00,0,20807701,186979
OK,56,54,659,56,2014-08-01T19:25:00,0,20808150,186979
OK,56,54,659,56,2014-08-01T19:30:00,0,20808599,186979
OK,56,54,659,56,2014-08-01T19:35:00,0,20809048,186979
OK,56,54,659,56,2014-08-01T19:40:00,0,20809497,186979
OK,72,42,659,72,2014-08-01T19:45:00,1,20809946,186979
OK,134,22,659,134,2014-08-01T19:50:00,1,20810395,186979
OK,134,22,659,134,2014-08-01T19:55:00,0,20810844,186979
OK,134,22,659,134,2014-08-01T20:00:00,0,20811291,186979
OK,134,22,659,134,2014-08-01T20:05:00,0,20811464,186979
OK,134,22,659,134,2014-08-01T20:10:00,0,20811666,186979
OK,134,22,659,134,2014-08-01T20:15:00,0,20811873,186979
OK,134,22,659,134,2014-08-01T20:20:00,0,20812081,186979
OK,134,22,659,134,2014-08-01T20:25:00,0,20812301,186979
OK,134,22,659,134,2014-08-01T20:30:00,0,20812514,186979
OK,134,22,659,134,2014-08-01T20:35:00,0,20812724,186979
OK,134,22,659,134,2014-08-01T20:40:00,0,20812925,186979
OK,134,22,659,134,2014-08-01T20:45:00,0,20813132,186979
OK,134,22,659,134,2014-08-01T20:50:00,0,20813343,186979
OK,134,22,659,134,2014-08-01T20:55:00,0,20813573,186979
OK,134,22,659,134,2014-08-01T21:00:00,0,20813811,186979
OK,134,22,659,134,2014-08-01T21:05:00,0,20813988,186979
OK,134,22,659,134,2014-08-01T21:10:00,0,20814227,186979
OK,134,22,659,134,2014-08-01T21:15:00,0,20814424,186979
OK,134,22,659,134,2014-08-01T21:20:00,0,20814630,186979
OK,134,22,659,134,2014-08-01T21:25:00,0,20814860,186979
OK,134,22,659,134,2014-08-01T21:30:00,0,20815135,186979
OK,134,22,659,134,2014-08-01T21:35:00,0,20815369,186979
OK,134,22,659,134,2014-08-01T21:40:00,0,20815592,186979
OK,134,22,659,134,2014-08-01T21:45:00,0,20815829,186979
OK,134,22,659,134,2014-08-01T21:50:00,0,20816070,186979
OK,134,22,659,134,2014-08-01T21:55:00,0,20816305,186979
OK,134,22,659,134,2014-08-01T22:00:00,0,20816573,186979
OK,134,22,659,134,2014-08-01T22:05:00,0,20817022,186979
OK,134,22,659,134,2014-08-01T22:10:00,0,20817344,186979
OK,134,22,659,134,2014-08-01T22:15:00,0,20817773,186979
OK,92,33,659,92,2014-08-01T22:20:00,1,20818063,186979
OK,92,33,659,92,2014-08-01T22:25:00,0,20818379,186979
OK,92,33,659,92,2014-08-01T22:30:00,0,20818713,186979
OK,92,33,659,92,2014-08-01T22:35:00,0,20819018,186979
OK,92,33,659,92,2014-08-01T22:40:00,0,20819197,186979
OK,92,33,659,92,2014-08-01T22:45:00,0,20819485,186979
OK,92,33,659,92,2014-08-01T22:50:00,0,20819720,186979
OK,92,33,659,92,2014-08-01T22:55:00,0,20819973,186979
OK,92,33,659,92,2014-08-01T23:00:00,0,20820149,186979
OK,92,33,659,92,2014-08-01T23:05:00,0,20820402,186979
OK,92,33,659,92,2014-08-01T23:10:00,0,20820632,186979
OK,151,20,659,151,2014-08-01T23:15:00,1,20820820,186979
OK,151,20,659,151,2014-08-01T23:20:00,0,20821072,186979
OK,151,20,659,151,2014-08-01T23:25:00,0,20821249,186979
OK,151,20,659,151,2014-08-01T23:30:00,0,20821474,186979
OK,151,20,659,151,2014-08-01T23:35:00,0,20821719,186979
OK,151,20,659,151,2014-08-01T23:40:00,0,20821898,186979
OK,82,37,659,82,2014-08-01T23:45:00,1,20822121,186979
OK,82,37,659,82,2014-08-01T23:50:00,0,20822388,186979
OK,82,37,659,82,2014-08-01T23:55:00,0,20822714,186979
OK,82,37,659,82,2014-08-02T00:00:00,0,20823012,186979
OK,82,37,659,82,2014-08-02T00:05:00,0,20823461,186979
OK,82,37,659,82,2014-08-02T00:10:00,0,20823910,186979
OK,82,37,659,82,2014-08-02T00:15:00,0,20824359,186979
OK,82,37,659,82,2014-08-02T00:20:00,0,20824808,186979
OK,82,37,659,82,2014-08-02T00:25:00,0,20825257,186979
OK,82,37,659,82,2014-08-02T00:30:00,0,20825706,186979
OK,82,37,659,82,2014-08-02T00:35:00,0,20826155,186979
OK,82,37,659,82,2014-08-02T00:40:00,0,20826604,186979
OK,82,37,659,82,2014-08-02T00:45:00,0,20827053,186979
OK,82,37,659,82,2014-08-02T00:50:00,0,20827502,186979
OK,85,35,659,85,2014-08-02T00:55:00,1,20827951,186979
OK,85,35,659,85,2014-08-02T01:00:00,0,20828400,186979
OK,85,35,659,85,2014-08-02T01:05:00,0,20828849,186979
OK,85,35,659,85,2014-08-02T01:10:00,0,20829298,186979
OK,85,35,659,85,2014-08-02T01:15:00,0,20829747,186979
OK,120,25,659,120,2014-08-02T01:20:00,1,20830196,186979
OK,120,25,659,120,2014-08-02T01:25:00,0,20830645,186979
OK,120,25,659,120,2014-08-02T01:30:00,0,20831094,186979
OK,120,25,659,120,2014-08-02T01:35:00,0,20831543,186979
OK,120,25,659,120,2014-08-02T01:40:00,0,20831992,186979
OK,120,25,659,120,2014-08-02T01:45:00,0,20832441,186979
OK,120,25,659,120,2014-08-02T01:50:00,0,20832890,186979
OK,120,25,659,120,2014-08-02T01:55:00,0,20833339,186979
OK,120,25,659,120,2014-08-02T02:00:00,0,20833788,186979
OK,79,38,659,79,2014-08-02T02:05:00,1,20834237,186979
OK,79,38,659,79,2014-08-02T02:10:00,1,20834686,186979
OK,79,38,659,79,2014-08-02T02:15:00,0,20835135,186979
OK,79,38,659,79,2014-08-02T02:20:00,0,20835584,186979
OK,79,38,659,79,2014-08-02T02:25:00,0,20836033,186979
OK,79,38,659,79,2014-08-02T02:30:00,0,20836482,186979
OK,79,38,659,79,2014-08-02T02:35:00,0,20836931,186979
OK,79,38,659,79,2014-08-02T02:40:00,0,20837380,186979
OK,79,38,659,79,2014-08-02T02:45:00,0,20837829,186979
OK,79,38,659,79,2014-08-02T02:50:00,0,20838278,186979
OK,79,38,659,79,2014-08-02T02:55:00,0,20838727,186979
OK,79,38,659,79,2014-08-02T03:00:00,0,20839176,186979
OK,79,38,659,79,2014-08-02T03:05:00,0,20839625,186979
OK,79,38,659,79,2014-08-02T03:10:00,0,20840074,186979
OK,79,38,659,79,2014-08-02T03:15:00,0,20840523,186979
OK,79,38,659,79,2014-08-02T03:20:00,0,20840972,186979
OK,79,38,659,79,2014-08-02T03:25:00,0,20841421,186979
OK,79,38,659,79,2014-08-02T03:30:00,0,20841870,186979
OK,79,38,659,79,2014-08-02T03:35:00,0,20842319,186979
OK,79,38,659,79,2014-08-02T03:40:00,0,20842768,186979
OK,79,38,659,79,2014-08-02T03:45:00,0,20843217,186979
OK,79,38,659,79,2014-08-02T03:50:00,0,20843666,186979
OK,79,38,659,79,2014-08-02T03:55:00,0,20844115,186979
OK,79,38,659,79,2014-08-02T04:00:00,0,20844564,186979
OK,79,38,659,79,2014-08-02T04:05:00,0,20844695,186979
OK,79,38,659,79,2014-08-02T04:10:00,0,20845025,186979
OK,79,38,659,79,2014-08-02T04:15:00,0,20845205,186979
OK,79,38,659,79,2014-08-02T04:20:00,0,20845561,186979
OK,79,38,659,79,2014-08-02T04:25:00,0,20845929,186979
OK,79,38,659,79,2014-08-02T04:30:00,0,20846117,186979
OK,79,38,659,79,2014-08-02T04:35:00,0,20846484,186979
OK,79,38,659,79,2014-08-02T04:40:00,0,20846867,186979
OK,79,38,659,79,2014-08-02T04:45:00,0,20847126,186979
OK,79,38,659,79,2014-08-02T04:50:00,0,20847492,186979
OK,79,38,659,79,2014-08-02T04:55:00,0,20847849,186979
OK,79,38,659,79,2014-08-02T05:00:00,0,20848209,186979
OK,79,38,659,79,2014-08-02T05:05:00,0,20848374,186979
OK,79,38,659,79,2014-08-02T05:10:00,0,20848727,186979
OK,79,38,659,79,2014-08-02T05:15:00,0,20848919,186979
OK,79,38,659,79,2014-08-02T05:20:00,0,20849263,186979
OK,79,38,659,79,2014-08-02T05:30:00,0,20849788,186979
OK,79,38,659,79,2014-08-02T05:35:00,0,20850060,186979
OK,79,38,659,79,2014-08-02T05:40:00,0,20850353,186979
OK,79,38,659,79,2014-08-02T05:45:00,0,20850654,186979
OK,79,38,659,79,2014-08-02T05:50:00,0,20851012,186979
OK,79,38,659,79,2014-08-02T05:55:00,0,20851266,186979
OK,79,38,659,79,2014-08-02T06:00:00,0,20851569,186979
OK,151,20,659,151,2014-08-02T06:05:00,1,20852018,186979
OK,151,20,659,151,2014-08-02T06:10:00,0,20852467,186979
OK,151,20,659,151,2014-08-02T06:15:00,0,20852916,186979
OK,151,20,659,151,2014-08-02T06:20:00,0,20853365,186979
OK,151,20,659,151,2014-08-02T06:25:00,0,20853814,186979
OK,151,20,659,151,2014-08-02T06:30:00,0,20854263,186979
OK,151,20,659,151,2014-08-02T06:35:00,0,20854712,186979
OK,151,20,659,151,2014-08-02T06:40:00,0,20855161,186979
OK,151,20,659,151,2014-08-02T06:45:00,0,20855610,186979
OK,151,20,659,151,2014-08-02T06:50:00,0,20856059,186979
OK,147,20,659,147,2014-08-02T06:55:00,1,20856508,186979
OK,147,20,659,147,2014-08-02T07:00:00,1,20856957,186979
OK,67,45,659,67,2014-08-02T07:05:00,1,20857406,186979
OK,67,45,659,67,2014-08-02T07:10:00,1,20857855,186979
OK,67,45,659,67,2014-08-02T07:15:00,0,20858304,186979
OK,67,45,659,67,2014-08-02T07:20:00,0,20858753,186979
OK,67,45,659,67,2014-08-02T07:25:00,0,20859202,186979
OK,67,45,659,67,2014-08-02T07:30:00,0,20859651,186979
OK,67,45,659,67,2014-08-02T07:35:00,0,20860100,186979
OK,67,45,659,67,2014-08-02T07:40:00,0,20860549,186979
OK,129,23,659,129,2014-08-02T07:45:00,2,20860998,186979
OK,129,23,659,129,2014-08-02T07:50:00,2,20861447,186979
OK,115,26,659,115,2014-08-02T07:55:00,1,20861896,186979
OK,115,26,659,115,2014-08-02T08:00:00,1,20862345,186979
OK,115,26,659,115,2014-08-02T08:05:00,0,20862794,186979
OK,166,18,659,166,2014-08-02T08:10:00,1,20863243,186979
OK,166,18,659,166,2014-08-02T08:15:00,0,20863692,186979
OK,166,18,659,166,2014-08-02T08:20:00,0,20864141,186979
OK,166,18,659,166,2014-08-02T08:25:00,0,20864590,186979
OK,166,18,659,166,2014-08-02T08:30:00,0,20865039,186979
OK,166,18,659,166,2014-08-02T08:35:00,0,20865488,186979
OK,166,18,659,166,2014-08-02T08:40:00,0,20865937,186979
OK,166,18,659,166,2014-08-02T08:45:00,0,20866386,186979
OK,166,18,659,166,2014-08-02T08:50:00,0,20866835,186979
OK,52,58,659,52,2014-08-02T08:55:00,1,20867284,186979
OK,52,58,659,52,2014-08-02T09:00:00,1,20867733,186979
OK,52,58,659,52,2014-08-02T09:05:00,0,20868182,186979
OK,52,58,659,52,2014-08-02T09:10:00,0,20868631,186979
OK,136,22,659,136,2014-08-02T09:15:00,1,20869080,186979
OK,141,21,659,141,2014-08-02T09:20:00,2,20869529,186979
OK,141,21,659,141,2014-08-02T09:25:00,0,20869978,186979
OK,141,21,659,141,2014-08-02T09:30:00,0,20870427,186979
OK,54,56,659,54,2014-08-02T09:35:00,1,20870876,186979
OK,54,56,659,54,2014-08-02T09:40:00,1,20871325,186979
OK,54,56,659,54,2014-08-02T09:45:00,0,20871774,186979
OK,54,56,659,54,2014-08-02T09:50:00,0,20872223,186979
OK,54,56,659,54,2014-08-02T09:55:00,0,20872672,186979
OK,54,56,659,54,2014-08-02T10:00:00,0,20873121,186979
OK,180,16,659,180,2014-08-02T10:05:00,1,20873570,186979
OK,180,16,659,180,2014-08-02T10:10:00,1,20874019,186979
OK,180,16,659,180,2014-08-02T10:15:00,0,20874468,186979
OK,180,16,659,180,2014-08-02T10:20:00,0,20874917,186979
OK,76,39,659,76,2014-08-02T10:25:00,2,20875366,186979
OK,76,39,659,76,2014-08-02T10:30:00,2,20875815,186979
OK,75,40,659,75,2014-08-02T10:35:00,0,20876264,186979
OK,75,40,659,75,2014-08-02T10:40:00,0,20876713,186979
OK,75,40,659,75,2014-08-02T10:45:00,0,20877162,186979
OK,75,40,659,75,2014-08-02T10:50:00,0,20877611,186979
OK,156,19,659,156,2014-08-02T10:55:00,1,20878060,186979
OK,156,19,659,156,2014-08-02T11:00:00,1,20878509,186979
OK,84,36,659,84,2014-08-02T11:05:00,1,20878958,186979
OK,84,36,659,84,2014-08-02T11:10:00,1,20879407,186979
OK,84,36,659,84,2014-08-02T11:15:00,0,20879856,186979
OK,84,36,659,84,2014-08-02T11:20:00,0,20880305,186979
OK,84,36,659,84,2014-08-02T11:25:00,0,20880754,186979
OK,100,30,659,100,2014-08-02T11:30:00,1,20881203,186979
OK,100,30,659,100,2014-08-02T11:35:00,1,20881652,186979
OK,100,30,659,100,2014-08-02T11:40:00,0,20882101,186979
OK,104,29,659,104,2014-08-02T11:45:00,1,20882550,186979
OK,104,29,659,104,2014-08-02T11:50:00,0,20882999,186979
OK,104,29,659,104,2014-08-02T11:55:00,0,20883448,186979
OK,104,29,659,104,2014-08-02T12:00:00,0,20883897,186979
OK,104,29,659,104,2014-08-02T12:05:00,0,20884346,186979
OK,91,33,659,91,2014-08-02T12:10:00,2,20884795,186979
OK,91,33,659,91,2014-08-02T12:15:00,0,20885244,186979
OK,91,33,659,91,2014-08-02T12:20:00,0,20885693,186979
OK,147,20,659,147,2014-08-02T12:25:00,1,20886142,186979
OK,147,20,659,147,2014-08-02T12:30:00,0,20886591,186979
OK,147,20,659,147,2014-08-02T12:35:00,0,20887040,186979
OK,147,20,659,147,2014-08-02T12:40:00,0,20887489,186979
OK,147,20,659,147,2014-08-02T12:45:00,0,20887938,186979
OK,147,20,659,147,2014-08-02T12:50:00,0,20888387,186979
OK,147,20,659,147,2014-08-02T12:55:00,0,20888836,186979
OK,147,20,659,147,2014-08-02T13:00:00,0,20889285,186979
OK,147,20,659,147,2014-08-02T13:05:00,0,20889734,186979
OK,147,20,659,147,2014-08-02T13:10:00,0,20890183,186979
OK,147,20,659,147,2014-08-02T13:15:00,0,20890632,186979
OK,165,18,659,165,2014-08-02T13:20:00,2,20891081,186979
OK,165,18,659,165,2014-08-02T13:25:00,2,20891530,186979
OK,175,17,659,175,2014-08-02T13:30:00,0,20891979,186979
OK,175,17,659,175,2014-08-02T13:35:00,0,20892428,186979
OK,175,17,659,175,2014-08-02T13:40:00,0,20892877,186979
OK,175,17,659,175,2014-08-02T13:45:00,0,20893326,186979
OK,175,17,659,175,2014-08-02T13:50:00,0,20893775,186979
OK,175,17,659,175,2014-08-02T13:55:00,0,20894224,186979
OK,283,10,659,283,2014-08-02T14:00:00,1,20894673,186979
OK,177,17,659,177,2014-08-02T14:05:00,2,20895122,186979
OK,72,42,659,72,2014-08-02T14:10:00,1,20895571,186979
OK,72,42,659,72,2014-08-02T14:15:00,0,20896020,186979
OK,72,42,659,72,2014-08-02T14:20:00,0,20896469,186979
OK,72,42,659,72,2014-08-02T14:25:00,0,20896918,186979
OK,85,35,659,85,2014-08-02T14:30:00,1,20897367,186979
OK,85,35,659,85,2014-08-02T14:35:00,0,20897816,186979
OK,200,15,659,200,2014-08-02T14:40:00,1,20898265,186979
OK,200,15,659,200,2014-08-02T14:45:00,1,20898714,186979
OK,200,15,659,200,2014-08-02T14:50:00,0,20899163,186979
OK,200,15,659,200,2014-08-02T14:55:00,0,20899612,186979
OK,200,15,659,200,2014-08-02T15:00:00,0,20900061,186979
OK,200,15,659,200,2014-08-02T15:05:00,0,20900510,186979
OK,200,15,659,200,2014-08-02T15:10:00,0,20900959,186979
OK,200,15,659,200,2014-08-02T15:15:00,0,20901408,186979
OK,200,15,659,200,2014-08-02T15:20:00,0,20901857,186979
OK,200,15,659,200,2014-08-02T15:25:00,0,20902306,186979
OK,200,15,659,200,2014-08-02T15:30:00,0,20902755,186979
OK,200,15,659,200,2014-08-02T15:35:00,0,20903204,186979
OK,200,15,659,200,2014-08-02T15:40:00,0,20903653,186979
OK,200,15,659,200,2014-08-02T15:45:00,0,20904102,186979
OK,200,15,659,200,2014-08-02T15:50:00,0,20904551,186979
OK,200,15,659,200,2014-08-02T15:55:00,0,20905000,186979
OK,90,33,659,90,2014-08-02T16:00:00,1,20905449,186979
OK,90,33,659,90,2014-08-02T16:05:00,1,20905898,186979
OK,90,33,659,90,2014-08-02T16:10:00,0,20906347,186979
OK,90,33,659,90,2014-08-02T16:15:00,0,20906796,186979
OK,137,22,659,137,2014-08-02T16:20:00,1,20907245,186979
OK,137,22,659,137,2014-08-02T16:25:00,1,20907694,186979
OK,137,22,659,137,2014-08-02T16:30:00,0,20908143,186979
OK,137,22,659,137,2014-08-02T16:35:00,0,20908592,186979
OK,140,21,659,140,2014-08-02T16:40:00,1,20909041,186979
OK,140,21,659,140,2014-08-02T16:45:00,1,20909490,186979
OK,140,21,659,140,2014-08-02T16:50:00,0,20909939,186979
OK,140,21,659,140,2014-08-02T16:55:00,0,20910388,186979
OK,118,25,659,118,2014-08-02T17:00:00,1,20910837,186979
OK,118,25,659,118,2014-08-02T17:05:00,0,20911286,186979
OK,118,25,659,118,2014-08-02T17:10:00,0,20911735,186979
OK,118,25,659,118,2014-08-02T17:15:00,0,20912184,186979
OK,118,25,659,118,2014-08-02T17:20:00,0,20912633,186979
OK,118,25,659,118,2014-08-02T17:25:00,0,20913082,186979
OK,118,25,659,118,2014-08-02T17:30:00,0,20913531,186979
OK,118,25,659,118,2014-08-02T17:35:00,0,20913980,186979
OK,118,25,659,118,2014-08-02T17:40:00,0,20914429,186979
OK,220,13,659,220,2014-08-02T17:45:00,1,20914878,186979
OK,220,13,659,220,2014-08-02T17:50:00,1,20915327,186979
OK,220,13,659,220,2014-08-02T17:55:00,0,20915776,186979
OK,220,13,659,220,2014-08-02T18:00:00,0,20916225,186979
OK,220,13,659,220,2014-08-02T18:05:00,0,20916674,186979
OK,220,13,659,220,2014-08-02T18:10:00,0,20917123,186979
OK,220,13,659,220,2014-08-02T18:15:00,0,20917572,186979
OK,220,13,659,220,2014-08-02T18:20:00,0,20918021,186979
OK,220,13,659,220,2014-08-02T18:25:00,0,20918470,186979
OK,220,13,659,220,2014-08-02T18:30:00,0,20918919,186979
OK,220,13,659,220,2014-08-02T18:35:00,0,20919368,186979
OK,220,13,659,220,2014-08-02T18:40:00,0,20919817,186979
OK,220,13,659,220,2014-08-02T18:45:00,0,20920266,186979
OK,110,27,659,110,2014-08-02T18:50:00,1,20920715,186979
OK,110,27,659,110,2014-08-02T18:55:00,1,20921164,186979
OK,110,27,659,110,2014-08-02T19:00:00,0,20921613,186979
OK,110,27,659,110,2014-08-02T19:05:00,0,20922062,186979
OK,110,27,659,110,2014-08-02T19:10:00,0,20922511,186979
OK,110,27,659,110,2014-08-02T19:15:00,0,20922960,186979
OK,110,27,659,110,2014-08-02T19:20:00,0,20923409,186979